Tillbaka till svenska Fidonet
English   Information   Debug  
FILM   0/18
FNEWS_PUBLISH   4926
FN_SYSOP   42201
FN_SYSOP_OLD1   71952
FTP_FIDO   0/2
FTSC_PUBLIC   0/13972
FUNNY   0/4886
GENEALOGY.EUR   0/71
GET_INFO   105
GOLDED   0/408
HAM   6399/16660
HOLYSMOKE   0/6791
HOT_SITES   0/1
HTMLEDIT   0/71
HUB203   466
HUB_100   264
HUB_400   39
HUMOR   0/29
IC   0/2851
INTERNET   0/424
INTERUSER   0/3
IP_CONNECT   719
JAMNNTPD   0/233
JAMTLAND   0/47
KATTY_KORNER   0/41
LAN   0/16
LINUX-USER   0/19
LINUXHELP   0/1155
LINUX   0/22300
LINUX_BBS   0/957
mail   18.68
mail_fore_ok   249
MENSA   0/341
MODERATOR   0/102
MONTE   0/992
MOSCOW_OKLAHOMA   0/1245
MUFFIN   0/783
MUSIC   0/321
N203_STAT   938
N203_SYSCHAT   313
NET203   321
NET204   69
NET_DEV   0/10
NORD.ADMIN   0/101
NORD.CHAT   0/2572
NORD.FIDONET   189
NORD.HARDWARE   0/28
NORD.KULTUR   0/114
NORD.PROG   0/32
NORD.SOFTWARE   0/88
NORD.TEKNIK   0/58
NORD   0/453
OCCULT_CHAT   0/93
OS2BBS   0/787
OS2DOSBBS   0/580
OS2HW   0/42
OS2INET   0/37
OS2LAN   0/134
OS2PROG   0/36
OS2REXX   0/113
OS2USER-L   207
OS2   0/4830
OSDEBATE   0/18996
PASCAL   0/490
PERL   0/457
PHP   0/45
POINTS   0/405
POLITICS   0/29554
POL_INC   0/14731
PSION   103
R20_ADMIN   1133
R20_AMATORRADIO   0/2
R20_BEST_OF_FIDONET   16
R20_CHAT   0/896
R20_DEPP   0/3
R20_DEV   400
R20_ECHO2   1831
R20_ECHOPRES   0/35
R20_ESTAT   0/719
R20_FIDONETPROG...
...RAM.MYPOINT
  0/2
R20_FIDONETPROGRAM   0/22
R20_FIDONET   0/248
R20_FILEFIND   0/24
R20_FILEFOUND   0/22
R20_HIFI   0/3
R20_INFO2   3723
R20_INTERNET   0/12940
R20_INTRESSE   0/60
R20_INTR_KOM   0/99
R20_KANDIDAT.CHAT   42
R20_KANDIDAT   28
R20_KOM_DEV   112
R20_KONTROLL   0/13360
R20_KORSET   0/18
R20_LOKALTRAFIK   0/24
R20_MODERATOR   0/1852
R20_NC   76
R20_NET200   245
R20_NETWORK.OTH...
...ERNETS
  0/13
R20_OPERATIVSYS...
...TEM.LINUX
  0/44
R20_PROGRAMVAROR   0/1
R20_REC2NEC   534
R20_SFOSM   0/341
R20_SF   0/108
R20_SPRAK.ENGLISH   0/1
R20_SQUISH   107
R20_TEST   2
R20_WORST_OF_FIDONET   20
RAR   0/9
RA_MULTI   106
RA_UTIL   0/162
REGCON.EUR   0/2068
REGCON   0/13
SCIENCE   0/1206
SF   0/239
SHAREWARE_SUPPORT   0/5146
SHAREWRE   0/14
SIMPSONS   0/169
STATS_OLD1   0/2539.065
STATS_OLD2   0/2530
STATS_OLD3   0/2395.095
STATS_OLD4   0/1692.25
SURVIVOR   0/495
SYSOPS_CORNER   0/3
SYSOP   0/84
TAGLINES   0/112
TEAMOS2   0/4530
TECH   0/2617
TEST.444   0/105
TRAPDOOR   0/19
TREK   0/755
TUB   0/290
UFO   0/40
UNIX   0/1316
USA_EURLINK   0/102
USR_MODEMS   0/1
VATICAN   0/2740
VIETNAM_VETS   0/14
VIRUS   0/378
VIRUS_INFO   0/201
VISUAL_BASIC   0/473
WHITEHOUSE   0/5187
WIN2000   0/101
WIN32   0/30
WIN95   0/4291
WIN95_OLD1   0/70272
WINDOWS   0/1517
WWB_SYSOP   0/419
WWB_TECH   0/810
ZCC-PUBLIC   0/1
ZEC   4

 
4DOS   0/134
ABORTION   0/7
ALASKA_CHAT   0/506
ALLFIX_FILE   0/1313
ALLFIX_FILE_OLD1   0/7997
ALT_DOS   0/152
AMATEUR_RADIO   0/1039
AMIGASALE   0/14
AMIGA   0/331
AMIGA_INT   0/1
AMIGA_PROG   0/20
AMIGA_SYSOP   0/26
ANIME   0/15
ARGUS   0/924
ASCII_ART   0/340
ASIAN_LINK   0/651
ASTRONOMY   0/417
AUDIO   0/92
AUTOMOBILE_RACING   0/105
BABYLON5   0/17862
BAG   135
BATPOWER   0/361
BBBS.ENGLISH   0/382
BBSLAW   0/109
BBS_ADS   0/5290
BBS_INTERNET   0/507
BIBLE   0/3563
BINKD   0/1119
BINKLEY   0/215
BLUEWAVE   0/2173
CABLE_MODEMS   0/25
CBM   0/46
CDRECORD   0/66
CDROM   0/20
CLASSIC_COMPUTER   0/378
COMICS   0/15
CONSPRCY   0/899
COOKING   41444
COOKING_OLD1   0/24719
COOKING_OLD2   0/40862
COOKING_OLD3   0/37489
COOKING_OLD4   0/35496
COOKING_OLD5   9370
C_ECHO   0/189
C_PLUSPLUS   0/31
DIRTY_DOZEN   0/201
DOORGAMES   0/2285
DOS_INTERNET   0/196
duplikat   6102
ECHOLIST   0/18295
EC_SUPPORT   0/318
ELECTRONICS   0/359
ELEKTRONIK.GER   1534
ENET.LINGUISTIC   0/13
ENET.POLITICS   0/4
ENET.SOFT   0/11701
ENET.SYSOP   34296
ENET.TALKS   0/32
ENGLISH_TUTOR   0/2000
EVOLUTION   0/1335
FDECHO   0/217
FDN_ANNOUNCE   0/7068
FIDONEWS   25062
FIDONEWS_OLD1   0/49742
FIDONEWS_OLD2   0/35949
FIDONEWS_OLD3   0/30874
FIDONEWS_OLD4   0/37224
FIDO_SYSOP   12922
FIDO_UTIL   0/180
FILEFIND   0/209
FILEGATE   0/212
Möte HAM, 16660 texter
 lista första sista föregående nästa
Text 4572, 908 rader
Skriven 2011-06-30 23:32:01 av Amsat List (1:323/120.0)
Ärende: [keps]  orb11181.amsa
=============================
[keps]  orb11181.amsa

Return-Path: <keps-bounces@amsat.org>
X-Rcpt: craig.healy@chowda.com
X-UIDL: 1309490862.4061

SB KEPS @ AMSAT  $ORB11181.O
Orbital Elements  11181.OSCAR

HR AMSAT ORBITAL ELEMENTS FOR OSCAR SATELLITES
FROM WA5QGD FORT WORTH,TX June 30, 2011
Send Subscribe/unsubscribe to KEPS at http://www.amsat.org/mailman/listinfo/kep
BID: ORB11181.O
TO ALL RADIO AMATEURS BT

Satellite: AO-07
Catalog number: 07530
Epoch time:      11180.04716725
Element set:     115
Inclination:      101.3913 deg
RA of node:       186.1199 deg
Eccentricity:    0.0011599
Arg of perigee:   255.9795 deg
Mean anomaly:     103.9989 deg
Mean motion:   12.53582906 rev/day
Decay rate:       -2.7e-07 rev/day^2
Epoch rev:           67567
Checksum:              324

Satellite: FO-29
Catalog number: 24278
Epoch time:      11180.92255454
Element set:    0628
Inclination:      098.5465 deg
RA of node:       323.3324 deg
Eccentricity:    0.0349886
Arg of perigee:   224.0866 deg
Mean anomaly:     133.1884 deg
Mean motion:   13.52962946 rev/day
Decay rate:        5.0e-08 rev/day^2
Epoch rev:           73418
Checksum:              335

Satellite: SO-33
Catalog number: 25509
Epoch time:      11180.39481272
Element set:    0001
Inclination:      031.4330 deg
RA of node:       175.2627 deg
Eccentricity:    0.0353458
Arg of perigee:   348.2821 deg
Mean anomaly:     010.9753 deg
Mean motion:   14.28425161 rev/day
Decay rate:       4.19e-06 rev/day^2
Epoch rev:           66202
Checksum:              274

Satellite: RS-22
Catalog number: 27939
Epoch time:      11173.41873221
Element set:     375
Inclination:      097.8455 deg
RA of node:       027.1667 deg
Eccentricity:    0.0013195
Arg of perigee:   334.0207 deg
Mean anomaly:     026.0333 deg
Mean motion:   14.63600221 rev/day
Decay rate:       2.23e-06 rev/day^2
Epoch rev:           41310
Checksum:              263

Satellite: VO-52
Catalog number: 28650
Epoch time:      11180.78761517
Element set:    0834
Inclination:      097.6413 deg
RA of node:       223.3552 deg
Eccentricity:    0.0028052
Arg of perigee:   119.2063 deg
Mean anomaly:     241.1925 deg
Mean motion:   14.82098056 rev/day
Decay rate:       1.93e-06 rev/day^2
Epoch rev:           33261
Checksum:              292

Satellite: SO-67
Catalog number: 35870
Epoch time:      11173.48427091
Element set:     958
Inclination:      097.2803 deg
RA of node:       216.6678 deg
Eccentricity:    0.0003077
Arg of perigee:   038.6822 deg
Mean anomaly:     068.6193 deg
Mean motion:   15.20809288 rev/day
Decay rate:      1.238e-05 rev/day^2
Epoch rev:            9774
Checksum:              343

Satellite: HO-68
Catalog number: 36122
Epoch time:      11180.77997257
Element set:    0510
Inclination:      100.4149 deg
RA of node:       241.4009 deg
Eccentricity:    0.0007478
Arg of perigee:   193.1444 deg
Mean anomaly:     166.9466 deg
Mean motion:   13.16286943 rev/day
Decay rate:       -4.4e-07 rev/day^2
Epoch rev:           07389
Checksum:              317

/EX
SB KEPS @ AMSAT  $ORB11181.D
Orbital Elements  11181.MICROS

HR AMSAT ORBITAL ELEMENTS FOR THE MICROSATS
FROM WA5QGD FORT WORTH,TX June 30, 2011
Send Subscribe/unsubscribe to KEPS at http://www.amsat.org/mailman/listinfo/kep
BID: ORB11181.D
TO ALL RADIO AMATEURS BT

Satellite: UO-11
Catalog number: 14781
Epoch time:      11180.71429404
Element set:    0587
Inclination:      098.0055 deg
RA of node:       237.3859 deg
Eccentricity:    0.0010139
Arg of perigee:   096.1880 deg
Mean anomaly:     264.0484 deg
Mean motion:   14.79990904 rev/day
Decay rate:        3.3e-07 rev/day^2
Epoch rev:           46764
Checksum:              319

Satellite: AO-16
Catalog number: 20439
Epoch time:      11180.87927047
Element set:    0236
Inclination:      098.3847 deg
RA of node:       130.0730 deg
Eccentricity:    0.0011526
Arg of perigee:   121.9063 deg
Mean anomaly:     238.3240 deg
Mean motion:   14.31926641 rev/day
Decay rate:        6.0e-07 rev/day^2
Epoch rev:           11943
Checksum:              275

Satellite: LO-19
Catalog number: 20442
Epoch time:      11180.88690242
Element set:     136
Inclination:      098.3476 deg
RA of node:       134.3836 deg
Eccentricity:    0.0012812
Arg of perigee:   117.3047 deg
Mean anomaly:     242.9440 deg
Mean motion:   14.32151968 rev/day
Decay rate:        7.5e-07 rev/day^2
Epoch rev:           11961
Checksum:              290

Satellite: AO-27
Catalog number: 22825
Epoch time:      11180.89065492
Element set:    0855
Inclination:      098.5310 deg
RA of node:       125.0834 deg
Eccentricity:    0.0007712
Arg of perigee:   234.5807 deg
Mean anomaly:     125.4676 deg
Mean motion:   14.29352594 rev/day
Decay rate:       -1.3e-07 rev/day^2
Epoch rev:           92600
Checksum:              303

Satellite: IO-26
Catalog number: 22826
Epoch time:      11180.95776374
Element set:    0620
Inclination:      098.5252 deg
RA of node:       125.6182 deg
Eccentricity:    0.0007950
Arg of perigee:   230.0201 deg
Mean anomaly:     130.0283 deg
Mean motion:   14.29615279 rev/day
Decay rate:        4.7e-07 rev/day^2
Epoch rev:           92613
Checksum:              286

Satellite: GO-32
Catalog number: 25397
Epoch time:      11181.69166550
Element set:     516
Inclination:      098.3252 deg
RA of node:       173.5308 deg
Eccentricity:    0.0000578
Arg of perigee:   183.8819 deg
Mean anomaly:     176.2345 deg
Mean motion:   14.23211706 rev/day
Decay rate:       -6.8e-07 rev/day^2
Epoch rev:           67388
Checksum:              320

